Year,Month,Day,Hour,Minute,Value (Times are PST for temperature in C)
2018,01,17,00,00,8.30
2018,01,17,00,01,8.30
2018,01,17,00,02,8.30
2018,01,17,00,03,8.30
2018,01,17,00,04,8.30
2018,01,17,00,05,8.30
2018,01,17,00,06,8.30
2018,01,17,00,07,8.30
2018,01,17,00,08,8.30
2018,01,17,00,09,8.30
2018,01,17,00,10,8.30
2018,01,17,00,11,8.30
2018,01,17,00,12,8.30
2018,01,17,00,13,8.30
2018,01,17,00,14,8.30
2018,01,17,00,15,8.30
2018,01,17,00,16,8.30
2018,01,17,00,17,8.30
2018,01,17,00,18,8.30
2018,01,17,00,19,8.20
2018,01,17,00,20,8.20
2018,01,17,00,21,8.20
2018,01,17,00,22,8.20
2018,01,17,00,23,8.20
2018,01,17,00,24,8.20
2018,01,17,00,25,8.20
2018,01,17,00,26,8.20
2018,01,17,00,27,8.20
2018,01,17,00,28,8.20
2018,01,17,00,29,8.20
2018,01,17,00,30,8.20
2018,01,17,00,31,8.20
2018,01,17,00,32,8.20
2018,01,17,00,33,8.20
2018,01,17,00,34,8.20
2018,01,17,00,35,8.10
2018,01,17,00,36,8.10
2018,01,17,00,37,8.10
2018,01,17,00,38,8.10
2018,01,17,00,39,8.10
2018,01,17,00,40,8.10
2018,01,17,00,41,8.10
2018,01,17,00,42,8.00
2018,01,17,00,43,8.00
2018,01,17,00,44,8.00
2018,01,17,00,45,8.00
2018,01,17,00,46,8.00
2018,01,17,00,47,7.90
2018,01,17,00,48,7.90
2018,01,17,00,49,7.90
2018,01,17,00,50,7.90
2018,01,17,00,51,7.80
2018,01,17,00,52,7.80
2018,01,17,00,53,7.80
2018,01,17,00,54,7.80
2018,01,17,00,55,7.80
2018,01,17,00,56,7.80
2018,01,17,00,57,7.80
2018,01,17,00,58,7.80
2018,01,17,00,59,7.80
2018,01,17,01,00,7.80
2018,01,17,01,01,7.70
2018,01,17,01,02,7.70
2018,01,17,01,03,7.70
2018,01,17,01,04,7.80
2018,01,17,01,05,7.80
2018,01,17,01,06,7.80
2018,01,17,01,07,7.80
2018,01,17,01,08,7.80
2018,01,17,01,09,7.80
2018,01,17,01,10,7.80
2018,01,17,01,11,7.70
2018,01,17,01,12,7.70
2018,01,17,01,13,7.70
2018,01,17,01,14,7.70
2018,01,17,01,15,7.70
2018,01,17,01,16,7.70
2018,01,17,01,17,7.70
2018,01,17,01,18,7.70
2018,01,17,01,19,7.70
2018,01,17,01,20,7.70
2018,01,17,01,21,7.70
2018,01,17,01,22,7.80
2018,01,17,01,23,7.80
2018,01,17,01,24,7.80
2018,01,17,01,25,7.80
2018,01,17,01,26,7.80
2018,01,17,01,27,7.80
2018,01,17,01,28,7.80
2018,01,17,01,29,7.80
2018,01,17,01,30,7.80
2018,01,17,01,31,7.90
2018,01,17,01,32,7.90
2018,01,17,01,33,8.00
2018,01,17,01,34,8.10
2018,01,17,01,35,8.10
2018,01,17,01,36,8.10
2018,01,17,01,37,8.20
2018,01,17,01,38,8.20
2018,01,17,01,39,8.20
2018,01,17,01,40,8.20
2018,01,17,01,41,8.20
2018,01,17,01,42,8.20
2018,01,17,01,43,8.20
2018,01,17,01,44,8.20
2018,01,17,01,45,8.20
2018,01,17,01,46,8.20
2018,01,17,01,47,8.20
2018,01,17,01,48,8.30
2018,01,17,01,49,8.30
2018,01,17,01,50,8.30
2018,01,17,01,51,8.30
2018,01,17,01,52,8.30
2018,01,17,01,53,8.30
2018,01,17,01,54,8.40
2018,01,17,01,55,8.40
2018,01,17,01,56,8.40
2018,01,17,01,57,8.40
2018,01,17,01,58,8.40
2018,01,17,01,59,8.40
2018,01,17,02,00,8.40
2018,01,17,02,01,8.40
2018,01,17,02,02,8.40
2018,01,17,02,03,8.40
2018,01,17,02,04,8.40
2018,01,17,02,05,8.40
2018,01,17,02,06,8.40
2018,01,17,02,07,8.40
2018,01,17,02,08,8.40
2018,01,17,02,09,8.40
2018,01,17,02,10,8.40
2018,01,17,02,11,8.40
2018,01,17,02,12,8.40
2018,01,17,02,13,8.40
2018,01,17,02,14,8.40
2018,01,17,02,15,8.30
2018,01,17,02,16,8.40
2018,01,17,02,17,8.40
2018,01,17,02,18,8.40
2018,01,17,02,19,8.40
2018,01,17,02,20,8.40
2018,01,17,02,21,8.40
2018,01,17,02,22,8.40
2018,01,17,02,23,8.40
2018,01,17,02,24,8.50
2018,01,17,02,25,8.50
2018,01,17,02,26,8.60
2018,01,17,02,27,8.60
2018,01,17,02,28,8.60
2018,01,17,02,29,8.70
2018,01,17,02,30,8.70
2018,01,17,02,31,8.70
2018,01,17,02,32,8.70
2018,01,17,02,33,8.70
2018,01,17,02,34,8.70
2018,01,17,02,35,8.70
2018,01,17,02,36,8.70
2018,01,17,02,37,8.60
2018,01,17,02,38,8.60
2018,01,17,02,39,8.60
2018,01,17,02,40,8.60
2018,01,17,02,41,8.60
2018,01,17,02,42,8.60
2018,01,17,02,43,8.60
2018,01,17,02,44,8.60
2018,01,17,02,45,8.50
2018,01,17,02,46,8.50
2018,01,17,02,47,8.50
2018,01,17,02,48,8.50
2018,01,17,02,49,8.50
2018,01,17,02,50,8.50
2018,01,17,02,51,8.60
2018,01,17,02,52,8.60
2018,01,17,02,53,8.60
2018,01,17,02,54,8.60
2018,01,17,02,55,8.60
2018,01,17,02,56,8.60
2018,01,17,02,57,8.60
2018,01,17,02,58,8.60
2018,01,17,02,59,8.60
2018,01,17,03,00,8.60
2018,01,17,03,01,8.60
2018,01,17,03,02,8.60
2018,01,17,03,03,8.60
2018,01,17,03,04,8.60
2018,01,17,03,05,8.60
2018,01,17,03,06,8.60
2018,01,17,03,07,8.50
2018,01,17,03,08,8.50
2018,01,17,03,09,8.50
2018,01,17,03,10,8.50
2018,01,17,03,11,8.50
2018,01,17,03,12,8.40
2018,01,17,03,13,8.40
2018,01,17,03,14,8.40
2018,01,17,03,15,8.40
2018,01,17,03,16,8.40
2018,01,17,03,17,8.40
2018,01,17,03,18,8.30
2018,01,17,03,19,8.30
2018,01,17,03,20,8.30
2018,01,17,03,21,8.30
2018,01,17,03,22,8.30
2018,01,17,03,23,8.20
2018,01,17,03,24,8.20
2018,01,17,03,25,8.20
2018,01,17,03,26,8.20
2018,01,17,03,27,8.20
2018,01,17,03,28,8.20
2018,01,17,03,29,8.20
2018,01,17,03,30,8.20
2018,01,17,03,31,8.20
2018,01,17,03,32,8.20
2018,01,17,03,33,8.10
2018,01,17,03,34,8.10
2018,01,17,03,35,8.10
2018,01,17,03,36,8.10
2018,01,17,03,37,8.10
2018,01,17,03,38,8.10
2018,01,17,03,39,8.10
2018,01,17,03,40,8.10
2018,01,17,03,41,8.10
2018,01,17,03,42,8.20
2018,01,17,03,43,8.20
2018,01,17,03,44,8.20
2018,01,17,03,45,8.20
2018,01,17,03,46,8.10
2018,01,17,03,47,8.10
2018,01,17,03,48,8.10
2018,01,17,03,49,8.10
2018,01,17,03,50,8.10
2018,01,17,03,51,8.10
2018,01,17,03,52,8.10
2018,01,17,03,53,8.10
2018,01,17,03,54,8.10
2018,01,17,03,55,8.00
2018,01,17,03,56,8.00
2018,01,17,03,57,8.00
2018,01,17,03,58,8.00
2018,01,17,03,59,7.90
2018,01,17,04,00,7.90
2018,01,17,04,01,7.90
2018,01,17,04,02,7.90
2018,01,17,04,03,7.90
2018,01,17,04,04,7.90
2018,01,17,04,05,7.90
2018,01,17,04,06,7.80
2018,01,17,04,07,7.80
2018,01,17,04,08,7.80
2018,01,17,04,09,7.80
2018,01,17,04,10,7.80
2018,01,17,04,11,7.80
2018,01,17,04,12,7.80
2018,01,17,04,13,7.80
2018,01,17,04,14,7.80
2018,01,17,04,15,7.80
2018,01,17,04,16,7.80
2018,01,17,04,17,7.80
2018,01,17,04,18,7.80
2018,01,17,04,19,7.80
2018,01,17,04,20,7.80
2018,01,17,04,21,7.80
2018,01,17,04,22,7.80
2018,01,17,04,23,7.80
2018,01,17,04,24,7.80
2018,01,17,04,25,7.80
2018,01,17,04,26,7.70
2018,01,17,04,27,7.70
2018,01,17,04,28,7.70
2018,01,17,04,29,7.70
2018,01,17,04,30,7.70
2018,01,17,04,31,7.70
2018,01,17,04,32,7.60
2018,01,17,04,33,7.60
2018,01,17,04,34,7.60
2018,01,17,04,35,7.50
2018,01,17,04,36,7.50
2018,01,17,04,37,7.40
2018,01,17,04,38,7.40
2018,01,17,04,39,7.40
2018,01,17,04,40,7.40
2018,01,17,04,41,7.40
2018,01,17,04,42,7.30
2018,01,17,04,43,7.30
2018,01,17,04,44,7.30
2018,01,17,04,45,7.30
2018,01,17,04,46,7.30
2018,01,17,04,47,7.30
2018,01,17,04,48,7.30
2018,01,17,04,49,7.30
2018,01,17,04,50,7.30
2018,01,17,04,51,7.20
2018,01,17,04,52,7.20
2018,01,17,04,53,7.20
2018,01,17,04,54,7.20
2018,01,17,04,55,7.20
2018,01,17,04,56,7.20
2018,01,17,04,57,7.20
2018,01,17,04,58,7.20
2018,01,17,04,59,7.20
2018,01,17,05,00,7.20
2018,01,17,05,01,7.20
2018,01,17,05,02,7.20
2018,01,17,05,03,7.20
2018,01,17,05,04,7.20
2018,01,17,05,05,7.20
2018,01,17,05,06,7.20
2018,01,17,05,07,7.20
2018,01,17,05,08,7.20
2018,01,17,05,09,7.20
2018,01,17,05,10,7.20
2018,01,17,05,11,7.20
2018,01,17,05,12,7.20
2018,01,17,05,13,7.20
2018,01,17,05,14,7.20
2018,01,17,05,15,7.10
2018,01,17,05,16,7.20
2018,01,17,05,17,7.20
2018,01,17,05,18,7.20
2018,01,17,05,19,7.20
2018,01,17,05,20,7.20
2018,01,17,05,21,7.20
2018,01,17,05,22,7.20
2018,01,17,05,23,7.20
2018,01,17,05,24,7.20
2018,01,17,05,25,7.20
2018,01,17,05,26,7.20
2018,01,17,05,27,7.20
2018,01,17,05,28,7.20
2018,01,17,05,29,7.20
2018,01,17,05,30,7.20
2018,01,17,05,31,7.20
2018,01,17,05,32,7.20
2018,01,17,05,33,7.20
2018,01,17,05,34,7.20
2018,01,17,05,35,7.20
2018,01,17,05,36,7.20
2018,01,17,05,37,7.20
2018,01,17,05,38,7.20
2018,01,17,05,39,7.20
2018,01,17,05,40,7.20
2018,01,17,05,41,7.10
2018,01,17,05,42,7.10
2018,01,17,05,43,7.10
2018,01,17,05,44,7.10
2018,01,17,05,45,7.10
2018,01,17,05,46,7.10
2018,01,17,05,47,7.10
2018,01,17,05,48,7.10
2018,01,17,05,49,7.10
2018,01,17,05,50,7.10
2018,01,17,05,51,7.10
2018,01,17,05,52,7.10
2018,01,17,05,53,7.00
2018,01,17,05,54,7.00
2018,01,17,05,55,7.00
2018,01,17,05,56,7.00
2018,01,17,05,57,7.00
2018,01,17,05,58,7.00
2018,01,17,05,59,7.10
2018,01,17,06,00,7.10
2018,01,17,06,01,7.10
2018,01,17,06,02,7.10
2018,01,17,06,03,7.10
2018,01,17,06,04,7.00
2018,01,17,06,05,7.00
2018,01,17,06,06,7.00
2018,01,17,06,07,6.90
2018,01,17,06,08,6.90
2018,01,17,06,09,6.90
2018,01,17,06,10,6.90
2018,01,17,06,11,6.90
2018,01,17,06,12,6.90
2018,01,17,06,13,6.90
2018,01,17,06,14,6.90
2018,01,17,06,15,6.90
2018,01,17,06,16,6.90
2018,01,17,06,17,6.90
2018,01,17,06,18,6.90
2018,01,17,06,19,6.90
2018,01,17,06,20,6.90
2018,01,17,06,21,6.90
2018,01,17,06,22,6.90
2018,01,17,06,23,6.90
2018,01,17,06,24,6.90
2018,01,17,06,25,6.90
2018,01,17,06,26,6.90
2018,01,17,06,27,6.90
2018,01,17,06,28,6.90
2018,01,17,06,29,6.90
2018,01,17,06,30,6.90
2018,01,17,06,31,6.90
2018,01,17,06,32,6.90
2018,01,17,06,33,6.90
2018,01,17,06,34,6.90
2018,01,17,06,35,6.90
2018,01,17,06,36,6.90
2018,01,17,06,37,6.90
2018,01,17,06,38,6.90
2018,01,17,06,39,6.90
2018,01,17,06,40,6.90
2018,01,17,06,41,6.90
2018,01,17,06,42,6.90
2018,01,17,06,43,6.90
2018,01,17,06,44,6.90
2018,01,17,06,45,6.90
2018,01,17,06,46,6.90
2018,01,17,06,47,6.90
2018,01,17,06,48,6.90
2018,01,17,06,49,6.90
2018,01,17,06,50,6.90
2018,01,17,06,51,6.90
2018,01,17,06,52,6.90
2018,01,17,06,53,6.90
2018,01,17,06,54,6.90
2018,01,17,06,55,6.90
2018,01,17,06,56,6.90
2018,01,17,06,57,6.80
2018,01,17,06,58,6.80
2018,01,17,06,59,6.80
2018,01,17,07,00,6.80
2018,01,17,07,01,6.80
2018,01,17,07,02,6.80
2018,01,17,07,03,6.80
2018,01,17,07,04,6.80
2018,01,17,07,05,6.80
2018,01,17,07,06,6.80
2018,01,17,07,07,6.80
2018,01,17,07,08,6.80
2018,01,17,07,09,6.80
2018,01,17,07,10,6.80
2018,01,17,07,11,6.80
2018,01,17,07,12,6.80
2018,01,17,07,13,6.80
2018,01,17,07,14,6.80
2018,01,17,07,15,6.80
2018,01,17,07,16,6.80
2018,01,17,07,17,6.80
2018,01,17,07,18,6.80
2018,01,17,07,19,6.80
2018,01,17,07,20,6.80
2018,01,17,07,21,6.80
2018,01,17,07,22,6.80
2018,01,17,07,23,6.80
2018,01,17,07,24,6.80
2018,01,17,07,25,6.80
2018,01,17,07,26,6.80
2018,01,17,07,27,6.80
2018,01,17,07,28,6.80
2018,01,17,07,29,6.80
2018,01,17,07,30,6.80
2018,01,17,07,31,6.80
2018,01,17,07,32,6.80
2018,01,17,07,33,6.80
2018,01,17,07,34,6.80
2018,01,17,07,35,6.80
2018,01,17,07,36,6.80
2018,01,17,07,37,6.80
2018,01,17,07,38,6.80
2018,01,17,07,39,6.80
2018,01,17,07,40,6.80
2018,01,17,07,41,6.80
2018,01,17,07,42,6.80
2018,01,17,07,43,6.80
2018,01,17,07,44,6.80
2018,01,17,07,45,6.80
2018,01,17,07,46,6.80
2018,01,17,07,47,6.80
2018,01,17,07,48,6.80
2018,01,17,07,49,6.80
2018,01,17,07,50,6.80
2018,01,17,07,51,6.80
2018,01,17,07,52,6.80
2018,01,17,07,53,6.80
2018,01,17,07,54,6.80
2018,01,17,07,55,6.70
2018,01,17,07,56,6.80
2018,01,17,07,57,6.80
2018,01,17,07,58,6.80
2018,01,17,07,59,6.70
2018,01,17,08,00,6.70
2018,01,17,08,01,6.70
2018,01,17,08,02,6.70
2018,01,17,08,03,6.70
2018,01,17,08,04,6.70
2018,01,17,08,05,6.70
2018,01,17,08,06,6.70
2018,01,17,08,07,6.70
2018,01,17,08,08,6.70
2018,01,17,08,09,6.70
2018,01,17,08,10,6.70
2018,01,17,08,11,6.70
2018,01,17,08,12,6.70
2018,01,17,08,13,6.70
2018,01,17,08,14,6.70
2018,01,17,08,15,6.70
2018,01,17,08,16,6.70
2018,01,17,08,17,6.70
2018,01,17,08,18,6.70
2018,01,17,08,19,6.70
2018,01,17,08,20,6.70
2018,01,17,08,21,6.70
2018,01,17,08,22,6.70
2018,01,17,08,23,6.70
2018,01,17,08,24,6.70
2018,01,17,08,25,6.70
2018,01,17,08,26,6.70
2018,01,17,08,27,6.70
2018,01,17,08,28,6.70
2018,01,17,08,29,6.70
2018,01,17,08,30,6.70
2018,01,17,08,31,6.70
2018,01,17,08,32,6.70
2018,01,17,08,33,6.70
2018,01,17,08,34,6.70
2018,01,17,08,35,6.70
2018,01,17,08,36,6.70
2018,01,17,08,37,6.70
2018,01,17,08,38,6.80
2018,01,17,08,39,6.80
2018,01,17,08,40,6.80
2018,01,17,08,41,6.80
2018,01,17,08,42,6.80
2018,01,17,08,43,6.80
2018,01,17,08,44,6.80
2018,01,17,08,45,6.90
2018,01,17,08,46,6.90
2018,01,17,08,47,6.90
2018,01,17,08,48,6.90
2018,01,17,08,49,6.90
2018,01,17,08,50,6.90
2018,01,17,08,51,6.90
2018,01,17,08,52,6.90
2018,01,17,08,53,6.90
2018,01,17,08,54,6.90
2018,01,17,08,55,6.90
2018,01,17,08,56,6.90
2018,01,17,08,57,6.90
2018,01,17,08,58,6.90
2018,01,17,08,59,7.00
2018,01,17,09,00,7.00
2018,01,17,09,01,7.00
2018,01,17,09,02,7.10
2018,01,17,09,03,7.00
2018,01,17,09,04,7.00
2018,01,17,09,05,7.00
2018,01,17,09,06,7.00
2018,01,17,09,07,7.10
2018,01,17,09,08,7.10
2018,01,17,09,09,7.10
2018,01,17,09,10,7.10
2018,01,17,09,11,7.10
2018,01,17,09,12,7.10
2018,01,17,09,13,7.10
2018,01,17,09,14,7.10
2018,01,17,09,15,7.20
2018,01,17,09,16,7.10
2018,01,17,09,17,7.10
2018,01,17,09,18,7.10
2018,01,17,09,19,7.10
2018,01,17,09,20,7.10
2018,01,17,09,21,7.10
2018,01,17,09,22,7.10
2018,01,17,09,23,7.10
2018,01,17,09,24,7.10
2018,01,17,09,25,7.10
2018,01,17,09,26,7.10
2018,01,17,09,27,7.10
2018,01,17,09,28,7.10
2018,01,17,09,29,7.10
2018,01,17,09,30,7.10
2018,01,17,09,31,7.10
2018,01,17,09,32,7.10
2018,01,17,09,33,7.10
2018,01,17,09,34,7.10
2018,01,17,09,35,7.20
2018,01,17,09,36,7.20
2018,01,17,09,37,7.20
2018,01,17,09,38,7.10
2018,01,17,09,39,7.10
2018,01,17,09,40,7.10
2018,01,17,09,41,7.10
2018,01,17,09,42,7.10
2018,01,17,09,43,7.20
2018,01,17,09,44,7.20
2018,01,17,09,45,7.20
2018,01,17,09,46,7.20
2018,01,17,09,47,7.20
2018,01,17,09,48,7.20
2018,01,17,09,49,7.20
2018,01,17,09,50,7.20
2018,01,17,09,51,7.20
2018,01,17,09,52,7.20
2018,01,17,09,53,7.20
2018,01,17,09,54,7.20
2018,01,17,09,55,7.20
2018,01,17,09,56,7.20
2018,01,17,09,57,7.20
2018,01,17,09,58,7.20
2018,01,17,09,59,7.20
2018,01,17,10,00,7.20
2018,01,17,10,01,7.20
2018,01,17,10,02,7.20
2018,01,17,10,03,7.20
2018,01,17,10,04,7.20
2018,01,17,10,05,7.20
2018,01,17,10,06,7.20
2018,01,17,10,07,7.20
2018,01,17,10,08,7.20
2018,01,17,10,09,7.20
2018,01,17,10,10,7.20
2018,01,17,10,11,7.20
2018,01,17,10,12,7.30
2018,01,17,10,13,7.30
2018,01,17,10,14,7.30
2018,01,17,10,15,7.30
2018,01,17,10,16,7.30
2018,01,17,10,17,7.30
2018,01,17,10,18,7.30
2018,01,17,10,19,7.30
2018,01,17,10,20,7.30
2018,01,17,10,21,7.30
2018,01,17,10,22,7.30
2018,01,17,10,23,7.40
2018,01,17,10,24,7.40
2018,01,17,10,25,7.40
2018,01,17,10,26,7.40
2018,01,17,10,27,7.40
2018,01,17,10,28,7.40
2018,01,17,10,29,7.40
2018,01,17,10,30,7.40
2018,01,17,10,31,7.50
2018,01,17,10,32,7.50
2018,01,17,10,33,7.50
2018,01,17,10,34,7.50
2018,01,17,10,35,7.50
2018,01,17,10,36,7.60
2018,01,17,10,37,7.60
2018,01,17,10,38,7.60
2018,01,17,10,39,7.60
2018,01,17,10,40,7.70
2018,01,17,10,41,7.80
2018,01,17,14,57,8.10
2018,01,17,14,58,8.10
2018,01,17,14,59,8.10
2018,01,17,15,00,8.10
2018,01,17,15,01,8.20
2018,01,17,15,02,8.20
2018,01,17,15,03,8.20
2018,01,17,15,04,8.20
2018,01,17,15,05,8.20
2018,01,17,15,06,8.30
2018,01,17,15,07,8.30
2018,01,17,15,08,8.30
2018,01,17,15,09,8.30
2018,01,17,15,10,8.30
2018,01,17,15,11,8.30
2018,01,17,15,12,8.30
2018,01,17,15,13,8.40
2018,01,17,15,14,8.40
2018,01,17,15,15,8.40
2018,01,17,15,16,8.40
2018,01,17,15,17,8.40
2018,01,17,15,18,8.40
2018,01,17,15,19,8.40
2018,01,17,15,20,8.40
2018,01,17,15,21,8.50
2018,01,17,15,22,8.50
2018,01,17,15,23,8.50
2018,01,17,15,24,8.50
2018,01,17,15,25,8.50
2018,01,17,15,26,8.50
2018,01,17,15,27,8.50
2018,01,17,15,28,8.50
2018,01,17,15,29,8.50
2018,01,17,15,30,8.40
2018,01,17,15,31,8.40
2018,01,17,15,32,8.40
2018,01,17,15,33,8.40
2018,01,17,15,34,8.50
2018,01,17,15,35,8.50
2018,01,17,15,36,8.50
2018,01,17,15,37,8.50
2018,01,17,15,38,8.50
2018,01,17,15,39,8.50
2018,01,17,15,40,8.50
2018,01,17,15,41,8.50
2018,01,17,15,42,8.50
2018,01,17,15,43,8.50
2018,01,17,15,44,8.40
2018,01,17,15,45,8.40
2018,01,17,15,46,8.40
2018,01,17,15,47,8.40
2018,01,17,15,48,8.40
2018,01,17,15,49,8.40
2018,01,17,15,50,8.40
2018,01,17,15,51,8.40
2018,01,17,15,52,8.40
2018,01,17,15,53,8.40
2018,01,17,15,54,8.40
2018,01,17,15,55,8.40
2018,01,17,15,56,8.40
2018,01,17,15,57,8.40
2018,01,17,15,58,8.40
2018,01,17,15,59,8.50
2018,01,17,16,00,8.50
2018,01,17,16,01,8.50
2018,01,17,16,02,8.50
2018,01,17,16,03,8.50
2018,01,17,16,04,8.50
2018,01,17,16,05,8.50
2018,01,17,16,06,8.50
2018,01,17,16,07,8.50
2018,01,17,16,08,8.50
2018,01,17,16,09,8.50
2018,01,17,16,10,8.60
2018,01,17,16,11,8.60
2018,01,17,16,12,8.50
2018,01,17,16,13,8.50
2018,01,17,16,14,8.50
2018,01,17,16,15,8.50
2018,01,17,16,16,8.50
2018,01,17,16,17,8.50
2018,01,17,16,18,8.50
2018,01,17,16,19,8.50
2018,01,17,16,20,8.50
2018,01,17,16,21,8.60
2018,01,17,16,22,8.60
2018,01,17,16,23,8.60
2018,01,17,16,24,8.60
2018,01,17,16,25,8.60
2018,01,17,16,26,8.60
2018,01,17,16,27,8.60
2018,01,17,16,28,8.70
2018,01,17,16,29,8.70
2018,01,17,16,30,8.70
2018,01,17,16,31,8.70
2018,01,17,16,32,8.70
2018,01,17,16,33,8.70
2018,01,17,16,34,8.80
2018,01,17,16,35,8.80
2018,01,17,16,36,8.80
2018,01,17,16,37,8.80
2018,01,17,16,38,8.80
2018,01,17,16,39,8.80
2018,01,17,16,40,8.80
2018,01,17,16,41,8.80
2018,01,17,16,42,8.80
2018,01,17,16,43,8.90
2018,01,17,16,44,8.90
2018,01,17,16,45,8.90
2018,01,17,16,46,8.90
2018,01,17,16,47,8.90
2018,01,17,16,48,8.90
2018,01,17,16,49,9.00
2018,01,17,16,50,9.00
2018,01,17,16,51,8.90
2018,01,17,16,52,8.90
2018,01,17,16,53,8.90
2018,01,17,16,54,9.00
2018,01,17,16,55,9.00
2018,01,17,16,56,9.10
2018,01,17,16,57,9.10
2018,01,17,16,58,9.10
2018,01,17,16,59,9.10
2018,01,17,17,00,9.10
2018,01,17,17,01,9.10
2018,01,17,17,02,9.10
2018,01,17,17,03,9.10
2018,01,17,17,04,9.10
2018,01,17,17,05,9.10
2018,01,17,17,06,9.20
2018,01,17,17,07,9.20
2018,01,17,17,08,9.20
2018,01,17,17,09,9.20
2018,01,17,17,10,9.20
2018,01,17,17,11,9.20
2018,01,17,17,12,9.20
2018,01,17,17,13,9.20
2018,01,17,17,14,9.30
2018,01,17,17,15,9.30
2018,01,17,17,16,9.30
2018,01,17,17,17,9.30
2018,01,17,17,18,9.30
2018,01,17,17,19,9.20
2018,01,17,17,20,9.20
2018,01,17,17,21,9.30
2018,01,17,17,22,9.30
2018,01,17,17,23,9.30
2018,01,17,17,24,9.30
2018,01,17,17,25,9.30
2018,01,17,17,26,9.20
2018,01,17,17,27,9.20
2018,01,17,17,28,9.20
2018,01,17,17,29,9.20
2018,01,17,17,30,9.20
2018,01,17,17,31,9.10
2018,01,17,17,32,9.10
2018,01,17,17,33,9.10
2018,01,17,17,34,9.10
2018,01,17,17,35,9.10
2018,01,17,17,36,9.10
2018,01,17,17,37,9.10
2018,01,17,17,38,9.10
2018,01,17,17,39,9.10
2018,01,17,17,40,9.20
2018,01,17,17,41,9.20
2018,01,17,17,42,9.20
2018,01,17,17,43,9.20
2018,01,17,17,44,9.30
2018,01,17,17,45,9.30
2018,01,17,17,46,9.30
2018,01,17,17,47,9.30
2018,01,17,17,48,9.20
2018,01,17,17,49,9.20
2018,01,17,17,50,9.20
2018,01,17,17,51,9.10
2018,01,17,17,52,9.10
2018,01,17,17,53,9.10
2018,01,17,17,54,9.10
2018,01,17,17,55,9.10
2018,01,17,17,56,9.10
2018,01,17,17,57,9.10
2018,01,17,17,58,9.10
2018,01,17,17,59,9.10
2018,01,17,18,00,9.10
2018,01,17,18,01,9.10
2018,01,17,18,02,9.20
2018,01,17,18,03,9.20
2018,01,17,18,04,9.20
2018,01,17,18,05,9.20
2018,01,17,18,06,9.20
2018,01,17,18,07,9.20
2018,01,17,18,08,9.20
2018,01,17,18,09,9.20
2018,01,17,18,10,9.20
2018,01,17,18,11,9.20
2018,01,17,18,12,9.30
2018,01,17,18,13,9.30
2018,01,17,18,14,9.30
2018,01,17,18,15,9.30
2018,01,17,18,16,9.30
2018,01,17,18,17,9.30
2018,01,17,18,18,9.30
2018,01,17,18,19,9.30
2018,01,17,18,20,9.40
2018,01,17,18,21,9.40
2018,01,17,18,22,9.40
2018,01,17,18,23,9.40
2018,01,17,18,24,9.40
2018,01,17,18,25,9.40
2018,01,17,18,26,9.40
2018,01,17,18,27,9.40
2018,01,17,18,28,9.50
2018,01,17,18,29,9.50
2018,01,17,18,30,9.40
2018,01,17,18,31,9.40
2018,01,17,18,32,9.40
2018,01,17,18,33,9.40
2018,01,17,18,34,9.40
2018,01,17,18,35,9.40
2018,01,17,18,36,9.40
2018,01,17,18,37,9.40
2018,01,17,18,38,9.40
2018,01,17,18,39,9.30
2018,01,17,18,40,9.30
2018,01,17,18,41,9.40
2018,01,17,18,42,9.40
2018,01,17,18,43,9.50
2018,01,17,18,44,9.50
2018,01,17,18,45,9.60
2018,01,17,18,46,9.60
2018,01,17,18,47,9.50
2018,01,17,18,48,9.50
2018,01,17,18,49,9.50
2018,01,17,18,50,9.50
2018,01,17,18,51,9.60
2018,01,17,18,52,9.60
2018,01,17,18,53,9.60
2018,01,17,18,54,9.70
2018,01,17,18,55,9.70
2018,01,17,18,56,9.70
2018,01,17,18,57,9.70
2018,01,17,18,58,9.70
2018,01,17,18,59,9.70
2018,01,17,19,00,9.60
2018,01,17,19,01,9.60
2018,01,17,19,02,9.60
2018,01,17,19,03,9.60
2018,01,17,19,04,9.60
2018,01,17,19,05,9.60
2018,01,17,19,06,9.70
2018,01,17,19,07,9.70
2018,01,17,19,08,9.60
2018,01,17,19,09,9.60
2018,01,17,19,10,9.60
2018,01,17,19,11,9.60
2018,01,17,19,12,9.60
2018,01,17,19,13,9.60
2018,01,17,19,14,9.60
2018,01,17,19,15,9.60
2018,01,17,19,16,9.60
2018,01,17,19,17,9.50
2018,01,17,19,18,9.50
2018,01,17,19,19,9.50
2018,01,17,19,20,9.50
2018,01,17,19,21,9.50
2018,01,17,19,22,9.50
2018,01,17,19,23,9.40
2018,01,17,19,24,9.40
2018,01,17,19,25,9.30
2018,01,17,19,26,9.30
2018,01,17,19,27,9.30
2018,01,17,19,28,9.30
2018,01,17,19,29,9.30
2018,01,17,19,30,9.30
2018,01,17,19,31,9.30
2018,01,17,19,32,9.20
2018,01,17,19,33,9.20
2018,01,17,19,34,9.20
2018,01,17,19,35,9.20
2018,01,17,19,36,9.20
2018,01,17,19,37,9.10
2018,01,17,19,38,9.10
2018,01,17,19,39,9.10
2018,01,17,19,40,9.10
2018,01,17,19,41,9.10
2018,01,17,19,42,9.10
2018,01,17,19,43,9.10
2018,01,17,19,44,9.10
2018,01,17,19,45,9.10
2018,01,17,19,46,9.10
2018,01,17,19,47,9.10
2018,01,17,19,48,9.10
2018,01,17,19,49,9.20
2018,01,17,19,50,9.20
2018,01,17,19,51,9.20
2018,01,17,19,52,9.10
2018,01,17,19,53,9.10
2018,01,17,19,54,9.10
2018,01,17,19,55,9.10
2018,01,17,19,56,9.10
2018,01,17,19,57,9.10
2018,01,17,19,58,9.10
2018,01,17,19,59,9.10
2018,01,17,20,00,9.10
2018,01,17,20,01,9.20
2018,01,17,20,02,9.30
2018,01,17,20,03,9.50
2018,01,17,20,04,9.50
2018,01,17,20,05,9.50
2018,01,17,20,06,9.50
2018,01,17,20,07,9.50
2018,01,17,20,08,9.50
2018,01,17,20,09,9.50
2018,01,17,20,10,9.40
2018,01,17,20,11,9.40
2018,01,17,20,12,9.30
2018,01,17,20,13,9.30
2018,01,17,20,14,9.20
2018,01,17,20,15,9.10
2018,01,17,20,16,9.00
2018,01,17,20,17,8.90
2018,01,17,20,18,8.90
2018,01,17,20,19,8.90
2018,01,17,20,20,8.90
2018,01,17,20,21,8.90
2018,01,17,20,22,8.90
2018,01,17,20,23,8.80
2018,01,17,20,24,8.80
2018,01,17,20,25,8.70
2018,01,17,20,26,8.70
2018,01,17,20,27,8.70
2018,01,17,20,28,8.60
2018,01,17,20,29,8.60
2018,01,17,20,30,8.60
2018,01,17,20,31,8.50
2018,01,17,20,32,8.50
2018,01,17,20,33,8.50
2018,01,17,20,34,8.50
2018,01,17,20,35,8.40
2018,01,17,20,36,8.50
2018,01,17,20,37,8.50
2018,01,17,20,38,8.40
2018,01,17,20,39,8.40
2018,01,17,20,40,8.30
2018,01,17,20,41,8.30
2018,01,17,20,42,8.30
2018,01,17,20,43,8.30
2018,01,17,20,44,8.40
2018,01,17,20,45,8.30
2018,01,17,20,46,8.30
2018,01,17,20,47,8.30
2018,01,17,20,48,8.20
2018,01,17,20,49,8.20
2018,01,17,20,50,8.20
2018,01,17,20,51,8.20
2018,01,17,20,52,8.20
2018,01,17,20,53,8.20
2018,01,17,20,54,8.20
2018,01,17,20,55,8.20
2018,01,17,20,56,8.20
2018,01,17,20,57,8.20
2018,01,17,20,58,8.10
2018,01,17,20,59,8.10
2018,01,17,21,00,8.10
2018,01,17,21,01,8.10
2018,01,17,21,02,8.20
2018,01,17,21,03,8.20
2018,01,17,21,04,8.20
2018,01,17,21,05,8.30
2018,01,17,21,06,8.30
2018,01,17,21,07,8.30
2018,01,17,21,08,8.30
2018,01,17,21,09,8.40
2018,01,17,21,10,8.30
2018,01,17,21,11,8.30
2018,01,17,21,12,8.30
2018,01,17,21,13,8.30
2018,01,17,21,14,8.20
2018,01,17,21,15,8.20
2018,01,17,21,16,8.10
2018,01,17,21,17,8.10
2018,01,17,21,18,8.10
2018,01,17,21,19,8.10
2018,01,17,21,20,8.00
2018,01,17,21,21,8.00
2018,01,17,21,22,8.00
2018,01,17,21,23,7.90
2018,01,17,21,24,7.90
2018,01,17,21,25,7.90
2018,01,17,21,26,7.90
2018,01,17,21,27,7.80
2018,01,17,21,28,7.80
2018,01,17,21,29,7.80
2018,01,17,21,30,7.80
2018,01,17,21,31,7.80
2018,01,17,21,32,7.80
2018,01,17,21,33,7.70
2018,01,17,21,34,7.70
2018,01,17,21,35,7.70
2018,01,17,21,36,7.70
2018,01,17,21,37,7.70
2018,01,17,21,38,7.70
2018,01,17,21,39,7.70
2018,01,17,21,40,7.70
2018,01,17,21,41,7.70
2018,01,17,21,42,7.70
2018,01,17,21,43,7.70
2018,01,17,21,44,7.80
2018,01,17,21,45,7.80
2018,01,17,21,46,7.80
2018,01,17,21,47,7.80
2018,01,17,21,48,7.80
2018,01,17,21,49,7.80
2018,01,17,21,50,7.80
2018,01,17,21,51,7.80
2018,01,17,21,52,7.80
2018,01,17,21,53,7.80
2018,01,17,21,54,7.80
2018,01,17,21,55,7.90
2018,01,17,21,56,7.90
2018,01,17,21,57,7.90
2018,01,17,21,58,7.90
2018,01,17,21,59,7.90
2018,01,17,22,00,7.90
2018,01,17,22,01,7.90
2018,01,17,22,02,7.90
2018,01,17,22,03,7.90
2018,01,17,22,04,7.90
2018,01,17,22,05,7.90
2018,01,17,22,06,7.80
2018,01,17,22,07,7.80
2018,01,17,22,08,7.80
2018,01,17,22,09,7.80
2018,01,17,22,10,7.80
2018,01,17,22,11,7.80
2018,01,17,22,12,8.00
2018,01,17,22,13,8.20
2018,01,17,22,14,8.30
2018,01,17,22,15,8.40
2018,01,17,22,16,8.40
2018,01,17,22,17,8.50
2018,01,17,22,18,8.40
2018,01,17,22,19,8.40
2018,01,17,22,20,8.30
2018,01,17,22,21,8.20